N89MS SADF-SAAR

Flight info

Callsign N89MS
Flight time 0h 57m
Altitude 24000
Route DCT ATOVO W5 PEDRO ESKON DCT
Aircraft TBM8/L-SG/C

Departure

Time 2026-05-06 23:38
Airport San Fernando Airport (SADF)

Arrival

Time 2026-05-07 00:35
Airport Rosario Islas Malvinas International Airport (SAAR)
Time Latitude Longitude Altitude Speed Heading
2026-05-06 23:19 -34.45564 -58.58401 22 ft 0 kts 211°
2026-05-06 23:31 -34.45565 -58.58403 22 ft 0 kts 227°
2026-05-06 23:31 -34.45567 -58.58408 22 ft 4 kts 269°
2026-05-06 23:31 -34.45529 -58.58437 22 ft 9 kts 249°
2026-05-06 23:31 -34.45574 -58.58541 22 ft 19 kts 242°
2026-05-06 23:32 -34.45647 -58.58713 22 ft 27 kts 243°
2026-05-06 23:32 -34.45741 -58.58933 22 ft 29 kts 243°
2026-05-06 23:32 -34.45813 -58.59101 22 ft 17 kts 243°
2026-05-06 23:32 -34.45856 -58.59197 22 ft 9 kts 241°
2026-05-06 23:33 -34.45879 -58.59250 22 ft 6 kts 243°
2026-05-06 23:33 -34.45907 -58.59313 22 ft 8 kts 241°
2026-05-06 23:33 -34.45942 -58.59394 22 ft 15 kts 242°
2026-05-06 23:33 -34.46009 -58.59552 22 ft 26 kts 242°
2026-05-06 23:34 -34.46028 -58.59598 22 ft 0 kts 248°
2026-05-06 23:36 -34.46032 -58.59633 22 ft 6 kts 274°
2026-05-06 23:36 -34.46003 -58.59680 23 ft 12 kts 311°
2026-05-06 23:36 -34.45975 -58.59698 22 ft 0 kts 43°
2026-05-06 23:37 -34.45912 -58.59627 22 ft 35 kts 44°
2026-05-06 23:37 -34.45613 -58.59273 28 ft 82 kts 44°
2026-05-06 23:37 -34.45144 -58.58787 283 ft 90 kts 38°
2026-05-06 23:37 -34.44601 -58.58294 515 ft 108 kts 40°
2026-05-06 23:38 -34.43953 -58.57651 690 ft 128 kts 38°
2026-05-06 23:38 -34.43270 -58.56872 932 ft 140 kts 38°
2026-05-06 23:38 -34.42564 -58.56044 1191 ft 140 kts 21°
2026-05-06 23:38 -34.41646 -58.55977 1464 ft 135 kts 346°
2026-05-06 23:39 -34.40759 -58.56356 1713 ft 136 kts 339°
2026-05-06 23:39 -34.39905 -58.56846 1963 ft 136 kts 336°
2026-05-06 23:39 -34.39032 -58.57366 1999 ft 149 kts 333°
2026-05-06 23:39 -34.38329 -58.58370 2006 ft 167 kts 307°
2026-05-06 23:40 -34.37755 -58.59628 2010 ft 177 kts 308°
2026-05-06 23:40 -34.37093 -58.60939 2011 ft 187 kts 310°
2026-05-06 23:40 -34.36382 -58.62208 2419 ft 177 kts 310°
2026-05-06 23:40 -34.35706 -58.63398 2902 ft 166 kts 310°
2026-05-06 23:41 -34.35065 -58.64521 3377 ft 158 kts 309°
2026-05-06 23:41 -34.34455 -58.65595 3856 ft 152 kts 308°
2026-05-06 23:41 -34.33866 -58.66629 4336 ft 147 kts 307°
2026-05-06 23:41 -34.33299 -58.67629 4806 ft 142 kts 307°
2026-05-06 23:42 -34.32759 -58.68579 5270 ft 136 kts 307°
2026-05-06 23:42 -34.32233 -58.69502 5751 ft 131 kts 307°
2026-05-06 23:42 -34.31727 -58.70391 6224 ft 126 kts 307°
2026-05-06 23:42 -34.31320 -58.71109 6600 ft 122 kts 307°
2026-05-06 23:43 -34.30851 -58.71936 7060 ft 117 kts 307°
2026-05-06 23:43 -34.30400 -58.72731 7523 ft 112 kts 307°
2026-05-06 23:43 -34.29972 -58.73486 8000 ft 105 kts 307°
2026-05-06 23:43 -34.29573 -58.74191 8471 ft 97 kts 306°
2026-05-06 23:44 -34.29211 -58.74832 8938 ft 86 kts 306°
2026-05-06 23:44 -34.28906 -58.75379 9407 ft 69 kts 305°
2026-05-06 23:44 -34.28694 -58.75793 9701 ft 54 kts 302°
2026-05-06 23:44 -34.28449 -58.76207 9657 ft 74 kts 309°
2026-05-06 23:45 -34.28077 -58.76782 9615 ft 102 kts 309°
2026-05-06 23:45 -34.27794 -58.77171 6775 ft 67 kts 359°
2026-05-06 23:45 -34.27563 -58.77033 7776 ft 121 kts 211°
2026-05-06 23:45 -34.28068 -58.76908 5626 ft 76 kts 341°
2026-05-06 23:46 -34.27901 -58.75936 10536 ft 132 kts 53°
2026-05-06 23:46 -34.27596 -58.75222 10733 ft 58 kts 52°
2026-05-06 23:46 -34.28765 -58.74639 7969 ft 262 kts 185°
2026-05-06 23:46 -34.30442 -58.75002 8236 ft 237 kts 212°
2026-05-06 23:47 -34.31703 -58.76122 8549 ft 216 kts 242°
2026-05-06 23:47 -34.32228 -58.77679 8856 ft 197 kts 273°
2026-05-06 23:47 -34.31911 -58.79210 9142 ft 188 kts 305°
2026-05-06 23:47 -34.30977 -58.80306 9393 ft 189 kts 318°
2026-05-06 23:48 -34.30035 -58.81422 9587 ft 190 kts 312°
2026-05-06 23:48 -34.29184 -58.82606 9911 ft 184 kts 310°
2026-05-06 23:48 -34.28373 -58.83761 10299 ft 176 kts 310°
2026-05-06 23:48 -34.27594 -58.84863 10688 ft 171 kts 310°
2026-05-06 23:49 -34.26953 -58.85767 10914 ft 171 kts 310°
2026-05-06 23:49 -34.26180 -58.86859 11202 ft 171 kts 310°
2026-05-06 23:49 -34.25404 -58.87954 11482 ft 172 kts 310°
2026-05-06 23:49 -34.24624 -58.89053 11765 ft 173 kts 310°
2026-05-06 23:50 -34.23850 -58.90144 12034 ft 173 kts 310°
2026-05-06 23:50 -34.22274 -58.92367 12588 ft 175 kts 310°
2026-05-06 23:50 -34.21479 -58.93486 12862 ft 176 kts 310°
2026-05-06 23:51 -34.20681 -58.94610 13146 ft 177 kts 309°
2026-05-06 23:51 -34.19879 -58.95739 13421 ft 177 kts 309°
2026-05-06 23:51 -34.19074 -58.96873 13671 ft 178 kts 309°
2026-05-06 23:51 -34.18267 -58.98008 13934 ft 178 kts 309°
2026-05-06 23:52 -34.17733 -58.98761 14108 ft 178 kts 309°
2026-05-06 23:52 -34.16922 -58.99900 14347 ft 179 kts 309°
2026-05-06 23:52 -34.16111 -59.01041 14599 ft 180 kts 309°
2026-05-06 23:52 -34.15028 -59.02562 14960 ft 178 kts 309°
2026-05-06 23:53 -34.14246 -59.03662 15431 ft 167 kts 309°
2026-05-06 23:53 -34.13493 -59.04723 15740 ft 167 kts 309°
2026-05-06 23:53 -34.12736 -59.05784 16043 ft 167 kts 309°
2026-05-06 23:53 -34.12233 -59.06490 16230 ft 168 kts 309°
2026-05-06 23:54 -34.11213 -59.07921 16605 ft 168 kts 309°
2026-05-06 23:54 -34.10706 -59.08632 16787 ft 169 kts 309°
2026-05-06 23:54 -34.09938 -59.09709 17068 ft 170 kts 309°
2026-05-06 23:54 -34.09167 -59.10790 17352 ft 170 kts 309°
2026-05-06 23:55 -34.08392 -59.11877 17629 ft 171 kts 309°
2026-05-06 23:55 -34.07614 -59.12967 17918 ft 172 kts 309°
2026-05-06 23:55 -34.06832 -59.14063 18153 ft 173 kts 309°
2026-05-06 23:55 -34.06048 -59.15160 18379 ft 173 kts 309°
2026-05-06 23:56 -34.05271 -59.16274 18619 ft 174 kts 308°
2026-05-06 23:56 -34.04510 -59.17383 18848 ft 174 kts 308°
2026-05-06 23:56 -34.03745 -59.18517 19084 ft 175 kts 308°
2026-05-06 23:56 -34.02961 -59.19640 19318 ft 175 kts 308°
2026-05-06 23:57 -34.02176 -59.20767 19553 ft 176 kts 308°
2026-05-06 23:57 -34.01378 -59.21914 19631 ft 184 kts 308°
2026-05-06 23:57 -34.00537 -59.23111 19637 ft 190 kts 308°
2026-05-06 23:57 -33.99681 -59.24343 19643 ft 194 kts 308°
2026-05-06 23:58 -33.98811 -59.25601 19648 ft 197 kts 308°
2026-05-06 23:58 -33.97923 -59.26881 19649 ft 200 kts 308°
2026-05-06 23:58 -33.97021 -59.28178 19647 ft 203 kts 308°
2026-05-06 23:58 -33.96111 -59.29486 19652 ft 205 kts 308°
2026-05-06 23:59 -33.95191 -59.30808 19651 ft 206 kts 308°
2026-05-06 23:59 -33.94278 -59.32120 19653 ft 208 kts 308°
2026-05-06 23:59 -33.93346 -59.33458 19651 ft 209 kts 308°
2026-05-06 23:59 -33.92412 -59.34799 19651 ft 209 kts 308°
2026-05-07 00:00 -33.91475 -59.36143 19649 ft 210 kts 308°
2026-05-07 00:00 -33.90537 -59.37489 19648 ft 210 kts 308°
2026-05-07 00:00 -33.89597 -59.38837 19650 ft 210 kts 308°
2026-05-07 00:00 -33.88654 -59.40188 19647 ft 211 kts 308°
2026-05-07 00:01 -33.87710 -59.41540 19644 ft 211 kts 308°
2026-05-07 00:01 -33.86765 -59.42894 19644 ft 211 kts 308°
2026-05-07 00:01 -33.85833 -59.44227 19646 ft 211 kts 308°
2026-05-07 00:01 -33.84888 -59.45580 19644 ft 211 kts 308°
2026-05-07 00:02 -33.83944 -59.46931 19649 ft 211 kts 308°
2026-05-07 00:02 -33.82993 -59.48291 19648 ft 212 kts 308°
2026-05-07 00:02 -33.82046 -59.49644 19648 ft 212 kts 308°
2026-05-07 00:02 -33.81099 -59.50998 19645 ft 212 kts 308°
2026-05-07 00:03 -33.80149 -59.52353 19645 ft 212 kts 308°
2026-05-07 00:03 -33.79200 -59.53710 19645 ft 212 kts 308°
2026-05-07 00:03 -33.78249 -59.55066 19643 ft 212 kts 308°
2026-05-07 00:03 -33.77299 -59.56422 19646 ft 212 kts 308°
2026-05-07 00:04 -33.76358 -59.57763 19646 ft 212 kts 308°
2026-05-07 00:04 -33.75406 -59.59121 19646 ft 212 kts 308°
2026-05-07 00:04 -33.74453 -59.60478 19647 ft 212 kts 308°
2026-05-07 00:04 -33.73502 -59.61834 19651 ft 212 kts 308°
2026-05-07 00:05 -33.72548 -59.63192 19649 ft 212 kts 308°
2026-05-07 00:05 -33.71595 -59.64549 19652 ft 212 kts 308°
2026-05-07 00:05 -33.70642 -59.65904 19647 ft 212 kts 308°
2026-05-07 00:05 -33.69689 -59.67260 19651 ft 212 kts 308°
2026-05-07 00:06 -33.68737 -59.68615 19651 ft 212 kts 308°
2026-05-07 00:06 -33.67797 -59.69950 19648 ft 212 kts 308°
2026-05-07 00:06 -33.66845 -59.71302 19650 ft 212 kts 308°
2026-05-07 00:06 -33.65892 -59.72656 19651 ft 212 kts 308°
2026-05-07 00:07 -33.64940 -59.74007 19650 ft 212 kts 308°
2026-05-07 00:07 -33.63987 -59.75360 19650 ft 212 kts 308°
2026-05-07 00:07 -33.63032 -59.76715 19648 ft 212 kts 308°
2026-05-07 00:07 -33.62079 -59.78066 19650 ft 212 kts 308°
2026-05-07 00:08 -33.61126 -59.79417 19648 ft 212 kts 308°
2026-05-07 00:08 -33.60173 -59.80768 19649 ft 212 kts 308°
2026-05-07 00:08 -33.59232 -59.82100 19648 ft 212 kts 308°
2026-05-07 00:08 -33.58279 -59.83450 19649 ft 212 kts 308°
2026-05-07 00:09 -33.57326 -59.84801 19649 ft 212 kts 308°
2026-05-07 00:09 -33.56370 -59.86151 19645 ft 212 kts 308°
2026-05-07 00:09 -33.55413 -59.87503 19644 ft 213 kts 308°
2026-05-07 00:09 -33.54458 -59.88854 19649 ft 213 kts 308°
2026-05-07 00:10 -33.53503 -59.90205 19649 ft 213 kts 308°
2026-05-07 00:10 -33.52546 -59.91558 19647 ft 213 kts 308°
2026-05-07 00:10 -33.51587 -59.92911 19647 ft 213 kts 308°
2026-05-07 00:10 -33.50629 -59.94263 19645 ft 213 kts 308°
2026-05-07 00:11 -33.49673 -59.95614 19646 ft 213 kts 308°
2026-05-07 00:11 -33.48726 -59.96948 19645 ft 213 kts 308°
2026-05-07 00:11 -33.47767 -59.98300 19643 ft 213 kts 308°
2026-05-07 00:11 -33.46808 -59.99653 19644 ft 213 kts 308°
2026-05-07 00:12 -33.45849 -60.01004 19643 ft 213 kts 308°
2026-05-07 00:12 -33.44890 -60.02355 19643 ft 213 kts 308°
2026-05-07 00:12 -33.43929 -60.03708 19646 ft 213 kts 308°
2026-05-07 00:12 -33.42968 -60.05060 19646 ft 213 kts 308°
2026-05-07 00:13 -33.42007 -60.06412 19647 ft 213 kts 308°
2026-05-07 00:13 -33.41046 -60.07765 19645 ft 213 kts 308°
2026-05-07 00:13 -33.40085 -60.09116 19645 ft 213 kts 308°
2026-05-07 00:13 -33.39123 -60.10467 19645 ft 213 kts 308°
2026-05-07 00:14 -33.38174 -60.11800 19644 ft 213 kts 308°
2026-05-07 00:14 -33.37213 -60.13149 19646 ft 213 kts 308°
2026-05-07 00:14 -33.36253 -60.14498 19644 ft 213 kts 308°
2026-05-07 00:14 -33.35292 -60.15847 19641 ft 213 kts 308°
2026-05-07 00:15 -33.34332 -60.17193 19641 ft 213 kts 308°
2026-05-07 00:15 -33.33371 -60.18540 19646 ft 213 kts 308°
2026-05-07 00:15 -33.32411 -60.19886 19644 ft 213 kts 308°
2026-05-07 00:15 -33.31450 -60.21232 19645 ft 213 kts 308°
2026-05-07 00:16 -33.30489 -60.22578 19645 ft 213 kts 308°
2026-05-07 00:16 -33.29695 -60.24040 19645 ft 200 kts 297°
2026-05-07 00:16 -33.29125 -60.25461 19183 ft 185 kts 296°
2026-05-07 00:16 -33.28603 -60.26810 18597 ft 179 kts 296°
2026-05-07 00:17 -33.28067 -60.28149 18000 ft 179 kts 297°
2026-05-07 00:17 -33.27521 -60.29477 17328 ft 178 kts 297°
2026-05-07 00:17 -33.26977 -60.30796 16676 ft 176 kts 297°
2026-05-07 00:17 -33.26438 -60.32102 16028 ft 175 kts 297°
2026-05-07 00:18 -33.25904 -60.33398 15397 ft 173 kts 296°
2026-05-07 00:18 -33.25377 -60.34676 14785 ft 171 kts 296°
2026-05-07 00:18 -33.24854 -60.35943 14171 ft 169 kts 296°
2026-05-07 00:18 -33.24334 -60.37201 13574 ft 168 kts 296°
2026-05-07 00:19 -33.23819 -60.38450 12929 ft 169 kts 296°
2026-05-07 00:19 -33.23298 -60.39709 12261 ft 170 kts 296°
2026-05-07 00:19 -33.22773 -60.40975 11607 ft 170 kts 296°
2026-05-07 00:19 -33.22249 -60.42243 10961 ft 170 kts 296°
2026-05-07 00:20 -33.21724 -60.43512 10328 ft 170 kts 296°
2026-05-07 00:20 -33.21202 -60.44775 9706 ft 170 kts 295°
2026-05-07 00:20 -33.20687 -60.46019 9052 ft 169 kts 296°
2026-05-07 00:20 -33.20171 -60.47267 8386 ft 166 kts 297°
2026-05-07 00:21 -33.19663 -60.48492 7728 ft 163 kts 298°
2026-05-07 00:21 -33.19238 -60.49516 7183 ft 160 kts 298°
2026-05-07 00:21 -33.18757 -60.50677 6555 ft 156 kts 300°
2026-05-07 00:21 -33.18283 -60.51821 5929 ft 152 kts 300°
2026-05-07 00:22 -33.17821 -60.52936 5272 ft 148 kts 301°
2026-05-07 00:22 -33.17370 -60.54025 4626 ft 145 kts 302°
2026-05-07 00:22 -33.16932 -60.55078 3983 ft 142 kts 302°
2026-05-07 00:22 -33.16494 -60.56133 3337 ft 142 kts 303°
2026-05-07 00:23 -33.16070 -60.57159 3007 ft 131 kts 302°
2026-05-07 00:23 -33.15673 -60.58183 3010 ft 142 kts 301°
2026-05-07 00:23 -33.15218 -60.59269 3019 ft 151 kts 302°
2026-05-07 00:23 -33.14733 -60.60408 3015 ft 157 kts 302°
2026-05-07 00:24 -33.14240 -60.61581 3020 ft 159 kts 302°
2026-05-07 00:24 -33.13745 -60.62770 3019 ft 161 kts 302°
2026-05-07 00:24 -33.13250 -60.63961 3020 ft 160 kts 301°
2026-05-07 00:24 -33.12755 -60.65150 3018 ft 160 kts 301°
2026-05-07 00:25 -33.12261 -60.66335 3021 ft 159 kts 301°
2026-05-07 00:25 -33.11778 -60.67497 3022 ft 158 kts 302°
2026-05-07 00:25 -33.11288 -60.68672 3022 ft 158 kts 302°
2026-05-07 00:25 -33.10798 -60.69848 3020 ft 160 kts 302°
2026-05-07 00:26 -33.10298 -60.71043 3024 ft 162 kts 301°
2026-05-07 00:26 -33.09801 -60.72257 3023 ft 164 kts 297°
2026-05-07 00:26 -33.09379 -60.73522 2822 ft 162 kts 298°
2026-05-07 00:26 -33.08953 -60.74741 2575 ft 157 kts 297°
2026-05-07 00:27 -33.08546 -60.75940 2337 ft 156 kts 297°
2026-05-07 00:27 -33.08139 -60.77145 2090 ft 157 kts 296°
2026-05-07 00:27 -33.07755 -60.78262 2017 ft 134 kts 297°
2026-05-07 00:27 -33.07438 -60.79221 2012 ft 120 kts 295°
2026-05-07 00:28 -33.07177 -60.80124 2012 ft 112 kts 294°
2026-05-07 00:28 -33.06962 -60.80997 2010 ft 108 kts 292°
2026-05-07 00:28 -33.06777 -60.81854 2005 ft 107 kts 291°
2026-05-07 00:28 -33.06607 -60.82724 2001 ft 108 kts 290°
2026-05-07 00:29 -33.06282 -60.83475 1999 ft 101 kts 328°
2026-05-07 00:29 -33.05602 -60.83363 2002 ft 115 kts 31°
2026-05-07 00:30 -33.03818 -60.81646 2002 ft 96 kts
2026-05-07 00:30 -33.03179 -60.81458 1992 ft 93 kts
2026-05-07 00:30 -33.02564 -60.81299 1993 ft 90 kts
2026-05-07 00:30 -33.01955 -60.81143 1994 ft 91 kts
2026-05-07 00:31 -33.01316 -60.80990 1938 ft 98 kts
2026-05-07 00:31 -33.00628 -60.80821 1823 ft 103 kts
2026-05-07 00:31 -32.99906 -60.80651 1690 ft 108 kts
2026-05-07 00:31 -32.99163 -60.80480 1547 ft 110 kts
2026-05-07 00:32 -32.98412 -60.80304 1410 ft 110 kts
2026-05-07 00:32 -32.97658 -60.80141 1266 ft 111 kts
2026-05-07 00:32 -32.96894 -60.79965 1121 ft 112 kts
2026-05-07 00:32 -32.96159 -60.79779 978 ft 104 kts
2026-05-07 00:33 -32.95443 -60.79636 759 ft 108 kts
2026-05-07 00:33 -32.94774 -60.79492 694 ft 113 kts
2026-05-07 00:33 -32.94075 -60.79339 634 ft 91 kts
2026-05-07 00:33 -32.93447 -60.79191 567 ft 95 kts 11°
2026-05-07 00:34 -32.92798 -60.79036 399 ft 94 kts 11°
2026-05-07 00:34 -32.92155 -60.78888 243 ft 94 kts 11°
2026-05-07 00:34 -32.91518 -60.78736 103 ft 91 kts 12°
2026-05-07 00:34 -32.90973 -60.78612 94 ft 68 kts 11°
2026-05-07 00:35 -32.90603 -60.78524 91 ft 36 kts 10°
2026-05-07 00:35 -32.90497 -60.78503 90 ft 5 kts 260°
2026-05-07 00:35 -32.90540 -60.78507 91 ft 10 kts 193°
2026-05-07 00:35 -32.90637 -60.78526 91 ft 18 kts 189°
2026-05-07 00:36 -32.90786 -60.78563 92 ft 25 kts 196°
2026-05-07 00:36 -32.90916 -60.78554 94 ft 12 kts 162°
2026-05-07 00:36 -32.90980 -60.78530 93 ft 9 kts 161°
2026-05-07 00:36 -32.91020 -60.78514 92 ft 3 kts 162°
2026-05-07 00:37 -32.91026 -60.78511 92 ft 0 kts 162°
2026-05-07 00:37 -32.91083 -60.78478 91 ft 16 kts 149°
2026-05-07 00:38 -32.91177 -60.78393 90 ft 19 kts 141°
2026-05-07 00:38 -32.91269 -60.78305 91 ft 12 kts 141°
2026-05-07 00:38 -32.91319 -60.78256 90 ft 7 kts 140°
2026-05-07 00:38 -32.91351 -60.78225 90 ft 4 kts 141°
2026-05-07 00:39 -32.91377 -60.78200 92 ft 8 kts 140°
2026-05-07 00:39 -32.91418 -60.78167 90 ft 7 kts 163°
2026-05-07 00:39 -32.91493 -60.78186 90 ft 12 kts 200°
2026-05-07 00:39 -32.91571 -60.78221 90 ft 13 kts 200°
2026-05-07 00:40 -32.91674 -60.78267 94 ft 17 kts 205°
2026-05-07 00:40 -32.91740 -60.78265 90 ft 8 kts 115°
2026-05-07 00:40 -32.91808 -60.78256 90 ft 14 kts 198°
2026-05-07 00:40 -32.91840 -60.78230 90 ft 5 kts 110°
2026-05-07 00:41 -32.91844 -60.78181 92 ft 4 kts 28°
2026-05-07 00:41 -32.91831 -60.78175 91 ft 0 kts 16°